Flag for Germany Weather past 2 weeks in Rostock, Mecklenburg-Western Pomerania, Germany

Now
67 °F

Partly sunny.


Feels Like: 67 °F
Forecast: 62 / 81 °F
Wind: 2 mph from East

Location: Rostock-Warnemuende

Current Time: Jul 26, 2014 at 7:58:21 AM

Latest Report: Jul 26, 2014 at 7:00 AM


Visibility: 13 mi

Pressure: 29.97 "Hg

Humidity: 82%

Dew point: 61 °F

Location of RostockLocation

Historic Weather in Rostock — Graph

°F

Rostock temperature yesterday

Maximum temperature yesterday: 76 °F (at 6:00 PM)
Minimum temperature yesterday: 64 °F (at 2:00 AM)
Average temperature yesterday: 70 °F

Past Weeks' High & Low Weather Summary

 TemperatureHumidityPressure
High81 °F (Jul 20, 4:00 PM)97% (Jul 24, 5:00 AM)30.21 "Hg (Jul 24, 5:00 AM)
Low58 °F (Jul 14, 6:00 AM)44% (Jul 21, 3:00 PM)29.65 "Hg (Jul 14, 7:00 AM)
Average67 °F77%30.00 "Hg
* Reported Jul 11 7:00 AM — Jul 26 7:00 AM, Rostock, Weather by CustomWeather, © 2014

Note: Actual official high and low records may vary slightly from our data, if they occured in-between our weather recording intervals... More about our weather records

Advertising

Rostock weather history for previous 24 hours

 ConditionsComfort  
Time TempWeatherWind HumidityBarometerVisibility
7:00 AM
Jul 26
67 °FPartly sunny.2 mph82%29.97 "Hg12 mi
6:00 AM67 °FOvercast.3 mph81%29.97 "Hg16 mi
5:00 AM66 °FOvercast.2 mph82%29.97 "Hg16 mi
4:00 AM67 °FOvercast.2 mph81%29.97 "Hg12 mi
3:00 AM69 °FOvercast.3 mph77%29.98 "Hg16 mi
2:00 AM69 °FOvercast.2 mph78%29.98 "Hg16 mi
1:00 AM69 °FOvercast.2 mph76%29.99 "Hg16 mi
12:00 AM71 °FOvercast.3 mph70%29.99 "Hg16 mi
11:00 PM
Jul 25
72 °FOvercast.3 mph67%29.98 "Hg16 mi
10:00 PM73 °FOvercast.5 mph63%29.98 "Hg16 mi
9:00 PM74 °FOvercast.5 mph59%29.97 "Hg16 mi
8:00 PM74 °FOvercast.3 mph58%29.97 "Hg16 mi
7:00 PM76 °FOvercast.3 mph55%29.98 "Hg16 mi
6:00 PM76 °FOvercast.5 mph48%29.98 "Hg16 mi
5:00 PM73 °FPartly sunny.7 mph68%29.98 "Hg12 mi
4:00 PM72 °FPartly sunny.7 mph71%29.99 "Hg14 mi
3:00 PM72 °FPartly sunny.8 mph68%29.99 "Hg14 mi
2:00 PM71 °FPartly sunny.9 mph74%30.00 "Hg12 mi
1:00 PM72 °FPartly sunny.8 mph73%30.01 "Hg11 mi
12:00 PM72 °FPartly sunny.9 mph73%30.02 "Hg6 mi
11:00 AM72 °FPartly sunny.7 mph74%30.03 "Hg9 mi
10:00 AM72 °FPartly sunny.5 mph71%30.03 "Hg12 mi
9:00 AM73 °FPartly sunny.2 mph69%30.03 "Hg16 mi
8:00 AM69 °FOvercast.3 mph82%30.03 "Hg11 mi
7:00 AM65 °FOvercast.1 mph92%30.03 "Hg9 mi
Weather by CustomWeather, © 2014

See weather overviewHow to use our weather pages